Home   Weather   Bloemfontein   Past weeks

Flag for South Africa Past Weather in Bloemfontein, South Africa — Yesterday and Last 2 Weeks

Now
55 °F

Cool.


Feels Like: 53 °F
Forecast: 46 / 69 °F
Wind: 8 mph from North

Location: Bloemfontein Airport

Current Time: Apr 27, 2017 at 12:00:24 am

Latest Report: Apr 26, 2017 at 11:00 pm


Visibility: N/A

Pressure: 30.30 "Hg (25.64 "Hg at 1397m altitude)

Humidity: 63%

Dew Point: 43 °F

Location of BloemfonteinLocation

Past Weather in Bloemfontein — Graph

°F

Bloemfontein Temperature Yesterday

Maximum temperature yesterday: 73 °F (at 2:00 pm)
Minimum temperature yesterday: 41 °F (at 7:00 am)
Average temperature yesterday: 57 °F

High & Low Weather Summary for the Past Weeks

 TemperatureHumidityPressure
High77 °F (Apr 12, 4:00 pm)100% (Apr 13, 9:00 am)30.33 "Hg (Apr 13, 9:00 am)
Low32 °F (Apr 20, 7:00 am)8% (Apr 20, 4:00 pm)29.98 "Hg (Apr 13, 3:00 am)
Average57 °F58%30.20 "Hg
* Reported Apr 11 11:00 pm — Apr 26 11:00 pm, Bloemfontein, Weather by CustomWeather, © 2017

Note: Actual official high and low records may vary slightly from our data, if they occured in-between our weather recording intervals... More about our weather records

Advertising

Bloemfontein Weather History for the Previous 24 Hours

Scroll right to see more
 ConditionsComfort  
Time TempWeatherWind HumidityBarometerVisibility
11:00 pm
Wed, Apr 26
55 °FCool.8 mph63%30.30 "HgN/A
10:00 pm55 °FCool.No wind63%30.27 "HgN/A
9:00 pm57 °FRefreshingly cool.5 mph59%30.27 "HgN/A
8:00 pm57 °FPassing clouds.3 mph55%30.27 "HgN/A
7:00 pm63 °FPassing clouds.5 mph49%30.24 "HgN/A
6:00 pm66 °FPassing clouds.6 mph43%30.24 "HgN/A
5:00 pm70 °FScattered clouds.6 mph33%30.24 "HgN/A
4:00 pm70 °FScattered clouds.8 mph38%30.21 "HgN/A
3:00 pm73 °FScattered clouds.2 mph33%30.21 "HgN/A
2:00 pm73 °FScattered clouds.6 mph31%30.27 "HgN/A
1:00 pm72 °FScattered clouds.8 mph41%30.27 "HgN/A
12:00 pm70 °FSunny.6 mph46%30.27 "Hg10 mi
11:00 am68 °FPassing clouds.9 mph49%30.30 "HgN/A
10:00 am64 °FPassing clouds.8 mph56%30.33 "HgN/A
9:20 am63 °FSunny.3 mph59%30.33 "Hg10 mi
9:00 am59 °FPassing clouds.3 mph63%30.33 "HgN/A
8:00 am50 °FSunny.No wind71%30.30 "Hg10 mi
7:00 am41 °FSunny.1 mph87%30.30 "Hg10 mi
6:00 am43 °FClear.3 mph81%30.30 "Hg10 mi
5:00 am43 °FClear.1 mph81%30.27 "Hg10 mi
4:00 am45 °FQuite cool.3 mph76%30.27 "HgN/A
3:00 am45 °FQuite cool.3 mph71%30.27 "HgN/A
2:00 am46 °FCool.3 mph66%30.27 "HgN/A
1:24 am48 °FCool.2 mph62%30.27 "HgN/A
1:00 am45 °FQuite cool.1 mph71%30.27 "HgN/A
12:00 am46 °FCool.3 mph66%30.27 "HgN/A
Weather by CustomWeather, © 2017

See weather overviewHow to use our weather pages